Date String (YYYY-MM-DD hh:mm:ss) UTC,Instrument flags,absolute air pressure of the measurement (hPa),sample flow rate (lpm),inlet stack bypass flow (lpm),air temperature of the measurement (°C),ambient temperature measured by the external sensor (°C),aerosol sample conditioner tube jacket temperature (°C),OPC LED temperature (°C),internal box temperature (°C),relative humidity of the measurement (%),span deviation,mass concentration of particles derived from Lorenz-Mie calculation of OPC scattering (μg/m³),mass concentration of particles derived from Lorenz-Mie calculation of OPC scattering (μg/m³),mass concentration of particles derived from Lorenz-Mie calculation of OPC scattering (μg/m³)
DateTimeUTC,F1_M11,P_M11,Q1_M11,Q2_M11,T1_M11,T2_M11,T3_M11,T4_M11,T5_M11,U1_M11,ZSPAN_M11,X0_M11,X2_M11,X1_M11
2023-10-28 10:00:00,SystemResetWarning,0829.1,5.01,000.00,021.4,021.0,000.0,029.5,023.4,13.4,0000.0,0012.61,0004.46,0003.81
2023-10-28 10:01:00,SystemResetWarning,0829.2,4.99,000.00,021.5,021.3,000.0,029.6,023.5,13.3,0000.0,0012.83,0004.47,0003.82
2023-10-28 10:02:00,SystemResetWarning,0829.2,4.99,000.00,021.6,021.3,000.0,029.6,023.4,13.3,0000.0,0013.27,0004.47,0003.83
2023-10-28 10:03:00,SystemResetWarning,0829.1,5.00,000.00,021.6,021.2,000.0,029.7,023.3,13.4,0000.0,0013.14,0004.46,0003.84
2023-10-28 10:04:00,SystemResetWarning,0829.1,5.01,000.00,021.6,021.0,000.0,029.7,023.3,13.4,0000.0,0013.28,0004.53,0003.85
2023-10-28 10:05:00,SystemResetWarning,0829.2,5.00,000.00,021.6,020.9,000.0,029.7,023.2,13.5,0000.0,0013.23,0004.57,0003.87
2023-10-28 10:06:00,SystemResetWarning,0829.2,5.00,000.00,021.6,020.8,000.0,029.8,023.2,13.4,0000.0,0013.63,0004.62,0003.89
2023-10-28 10:07:00,SystemResetWarning,0829.3,5.00,000.00,021.6,020.7,000.0,029.8,023.2,13.4,0000.0,0013.85,0004.68,0003.92
2023-10-28 10:08:00,SystemResetWarning,0829.4,5.00,000.00,021.6,020.6,000.0,029.8,023.2,13.4,0000.0,0014.15,0004.72,0003.96
2023-10-28 10:09:00,SystemResetWarning,0829.4,5.00,000.00,021.6,020.5,000.0,029.8,023.2,13.4,0000.0,0014.02,0004.71,0003.99
2023-10-28 10:10:00,SystemResetWarning,0829.3,5.01,000.00,021.6,020.4,000.0,029.8,023.2,13.5,0000.0,0013.67,0004.74,0004.01
2023-10-28 10:11:00,SystemResetWarning,0829.3,5.01,000.00,021.6,020.4,000.0,029.8,023.1,13.6,0000.0,0013.12,0004.78,0004.04
2023-10-28 10:12:00,SystemResetWarning,0829.3,5.01,000.00,021.6,020.3,000.0,029.8,023.1,13.6,0000.0,0013.11,0004.76,0004.05
2023-10-28 10:13:00,SystemResetWarning,0829.3,5.00,000.00,021.6,020.3,000.0,029.8,023.1,13.4,0000.0,0012.41,0004.77,0004.06
2023-10-28 10:14:00,SystemResetWarning,0829.3,4.99,000.00,021.6,020.3,000.0,029.8,023.2,13.1,0000.0,0012.86,0004.81,0004.09
2023-10-28 10:15:00,SystemResetWarning,0829.4,4.99,000.00,021.6,020.3,000.0,029.8,023.1,12.8,0000.0,0012.74,0004.83,0004.10
2023-10-28 10:16:00,SystemResetWarning,0829.3,5.00,000.00,021.6,020.2,000.0,029.8,023.1,12.7,0000.0,0012.67,0004.81,0004.11
2023-10-28 10:17:00,SystemResetWarning,0829.2,5.01,000.00,021.6,020.2,000.0,029.8,023.1,12.7,0000.0,0012.89,0004.79,0004.11
2023-10-28 10:18:00,SystemResetWarning,0829.3,5.00,000.00,021.6,020.2,000.0,029.8,023.1,12.6,0000.0,0012.65,0004.79,0004.11
2023-10-28 10:19:00,SystemResetWarning,0829.3,5.00,000.00,021.6,020.2,000.0,029.8,023.1,12.6,0000.0,0011.87,0004.78,0004.11
2023-10-28 10:20:00,SystemResetWarning,0829.4,5.01,000.00,021.6,020.2,000.0,029.8,023.1,12.6,0000.0,0010.32,0004.77,0004.09
2023-10-28 10:21:00,SystemResetWarning,0829.4,5.00,000.00,021.6,020.1,000.0,029.8,023.1,12.6,0000.0,0010.16,0004.78,0004.09
2023-10-28 10:22:00,SystemResetWarning,0829.3,5.00,000.00,021.6,020.1,000.0,029.8,023.1,12.6,0000.0,0010.28,0004.76,0004.11
2023-10-28 10:23:00,SystemResetWarning,0829.3,5.00,000.00,021.6,020.1,000.0,029.8,023.1,12.5,0000.0,0009.89,0004.76,0004.11
2023-10-28 10:24:00,SystemResetWarning,0829.3,4.99,000.00,021.6,020.1,000.0,029.8,023.1,12.6,0000.0,0010.29,0004.80,0004.11
2023-10-28 10:25:00,SystemResetWarning,0829.3,4.99,000.00,021.5,020.1,000.0,029.9,023.1,12.6,0000.0,0010.36,0004.79,0004.10
2023-10-28 10:26:00,SystemResetWarning,0829.4,5.00,000.00,021.5,020.1,000.0,029.8,023.0,12.6,0000.0,0010.86,0004.82,0004.09
2023-10-28 10:27:00,SystemResetWarning,0829.4,5.01,000.00,021.5,020.1,000.0,029.8,023.0,12.7,0000.0,0011.97,0004.82,0004.10
2023-10-28 10:28:00,SystemResetWarning,0829.5,5.01,000.00,021.5,020.1,000.0,029.8,023.0,12.7,0000.0,0012.65,0004.85,0004.11
2023-10-28 10:29:00,SystemResetWarning,0829.7,5.01,000.00,021.5,020.1,000.0,029.8,023.0,12.7,0000.0,0012.70,0004.85,0004.10
2023-10-28 10:30:00,SystemResetWarning,0829.7,5.01,000.00,021.5,020.0,000.0,029.8,023.0,12.8,0000.0,0012.85,0004.82,0004.08
2023-10-28 10:31:00,SystemResetWarning,0829.7,5.00,000.00,021.5,020.0,000.0,029.8,022.9,12.8,0000.0,0012.83,0004.82,0004.08
2023-10-28 10:32:00,SystemResetWarning,0829.7,5.00,000.00,021.5,020.0,000.0,029.8,022.9,12.8,0000.0,0012.86,0004.81,0004.06
2023-10-28 10:33:00,SystemResetWarning,0829.7,5.00,000.00,021.5,020.0,000.0,029.8,023.0,12.9,0000.0,0012.81,0004.85,0004.03
2023-10-28 10:34:00,SystemResetWarning,0829.7,5.00,000.00,021.5,020.5,000.0,029.7,023.3,12.8,0000.0,0013.14,0004.92,0004.04
2023-10-28 10:35:00,SystemResetWarning,0829.7,5.00,000.00,021.6,021.2,000.0,029.7,023.5,12.8,0000.0,0013.35,0004.91,0004.04
2023-10-28 10:36:00,SystemResetWarning,0829.8,4.99,000.00,021.7,021.3,000.0,029.8,023.5,12.8,0000.0,0013.76,0004.91,0004.03
2023-10-28 10:37:00,SystemResetWarning,0829.7,4.99,000.00,021.7,021.1,000.0,029.8,023.3,12.8,0000.0,0013.61,0004.89,0004.03
2023-10-28 10:38:00,SystemResetWarning,0829.8,4.99,000.00,021.6,021.0,000.0,029.9,023.3,12.8,0000.0,0013.07,0004.92,0004.02
2023-10-28 10:39:00,SystemResetWarning,0829.8,5.00,000.00,021.6,020.8,000.0,029.9,023.2,12.8,0000.0,0012.30,0004.93,0004.01
2023-10-28 10:40:00,SystemResetWarning,0829.9,5.00,000.00,021.6,020.7,000.0,029.9,023.2,12.8,0000.0,0011.95,0004.94,0004.04
2023-10-28 10:41:00,SystemResetWarning,0829.9,5.00,000.00,021.6,020.6,000.0,029.9,023.2,12.8,0000.0,0012.24,0004.95,0004.06
2023-10-28 10:42:00,SystemResetWarning,0830.0,5.01,000.00,021.6,020.5,000.0,029.9,023.2,12.8,0000.0,0012.33,0004.95,0004.06
2023-10-28 10:43:00,SystemResetWarning,0830.0,5.01,000.00,021.6,020.5,000.0,029.9,023.2,12.7,0000.0,0012.35,0004.93,0004.06
2023-10-28 10:44:00,SystemResetWarning,0829.9,5.00,000.00,021.6,020.4,000.0,029.9,023.2,12.8,0000.0,0012.63,0004.90,0004.07
2023-10-28 10:45:00,SystemResetWarning,0829.8,5.00,000.00,021.6,020.4,000.0,029.9,023.1,12.7,0000.0,0012.38,0004.85,0004.06
2023-10-28 10:46:00,SystemResetWarning,0829.8,5.00,000.00,021.6,020.3,000.0,029.9,023.1,12.6,0000.0,0011.89,0004.86,0004.08
2023-10-28 10:47:00,SystemResetWarning,0829.8,4.99,000.00,021.6,020.3,000.0,029.9,023.1,12.6,0000.0,0012.14,0004.87,0004.09
2023-10-28 10:48:00,SystemResetWarning,0829.8,4.99,000.00,021.6,020.2,000.0,029.9,023.1,12.6,0000.0,0012.04,0004.83,0004.09
2023-10-28 10:49:00,SystemResetWarning,0829.8,5.01,000.00,021.6,020.2,000.0,029.9,023.1,12.6,0000.0,0011.69,0004.83,0004.08
2023-10-28 10:50:00,SystemResetWarning,0829.8,5.01,000.00,021.6,020.2,000.0,029.9,023.1,12.6,0000.0,0011.36,0004.79,0004.04
2023-10-28 10:51:00,SystemResetWarning,0829.8,5.00,000.00,021.6,020.2,000.0,029.9,023.1,12.6,0000.0,0011.85,0004.76,0004.00
2023-10-28 10:52:00,SystemResetWarning,0829.8,5.00,000.00,021.5,020.1,000.0,029.9,023.1,12.6,0000.0,0011.41,0004.74,0003.95
2023-10-28 10:53:00,SystemResetWarning,0829.8,5.00,000.00,021.5,020.1,000.0,029.9,023.1,12.5,0000.0,0011.56,0004.70,0003.92
2023-10-28 10:54:00,SystemResetWarning,0829.8,5.01,000.00,021.6,020.6,000.0,029.8,023.4,12.5,0000.0,0011.99,0004.66,0003.87
2023-10-28 10:55:00,SystemResetWarning,0829.9,4.99,000.00,021.7,021.5,000.0,029.8,023.7,12.4,0000.0,0011.91,0004.61,0003.82
2023-10-28 10:56:00,SystemResetWarning,0829.9,4.99,000.00,021.8,021.7,000.0,029.9,023.7,12.4,0000.0,0012.43,0004.58,0003.78
2023-10-28 10:57:00,SystemResetWarning,0829.9,4.99,000.00,021.8,021.5,000.0,029.9,023.6,12.4,0000.0,0012.65,0004.53,0003.72
2023-10-28 10:58:00,SystemResetWarning,0830.0,5.01,000.00,021.8,021.4,000.0,030.0,023.5,12.4,0000.0,0011.78,0004.49,0003.66
2023-10-28 10:59:00,SystemResetWarning,0830.0,5.00,000.00,021.8,021.2,000.0,030.0,023.4,12.5,0000.0,0011.41,0004.49,0003.62
